Meteo orario Abadan

Oggi, 24 Giugno, Giovedi

Tempo Temperatura Precipitazioni Vento Pressione Umidità
00:00 +40°C° 0 mm 7 m/s 751 mm Hg 10%
01:00 +40°C° 0 mm 7 m/s 751 mm Hg 11%
02:00 +39°C° 0 mm 7 m/s 751 mm Hg 13%
03:00 +38°C° 0 mm 7 m/s 751 mm Hg 14%
04:00 +38°C° 0 mm 7 m/s 751 mm Hg 15%
05:00 +38°C° 0 mm 6 m/s 751 mm Hg 15%
06:00 +36°C° 0 mm 6 m/s 751 mm Hg 16%
07:00 +40°C° 0 mm 7 m/s 751 mm Hg 14%
08:00 +43°C° 0 mm 8 m/s 751 mm Hg 12%
09:00 +45°C° 0 mm 9 m/s 751 mm Hg 10%
10:00 +48°C° 0 mm 9 m/s 750 mm Hg 9%
11:00 +50°C° 0 mm 9 m/s 750 mm Hg 7%
12:00 +51°C° 0 mm 8 m/s 750 mm Hg 6%
13:00 +52°C° 0 mm 8 m/s 749 mm Hg 5%
14:00 +54°C° 0 mm 8 m/s 749 mm Hg 5%
15:00 +55°C° 0 mm 7 m/s 748 mm Hg 4%
16:00 +54°C° 0 mm 8 m/s 748 mm Hg 4%
17:00 +52°C° 0 mm 8 m/s 748 mm Hg 5%
18:00 +51°C° 0 mm 8 m/s 748 mm Hg 5%
19:00 +50°C° 0 mm 8 m/s 748 mm Hg 6%
20:00 +48°C° 0 mm 8 m/s 749 mm Hg 6%
21:00 +45°C° 0 mm 7 m/s 749 mm Hg 7%
22:00 +44°C° 0 mm 7 m/s 749 mm Hg 8%
23:00 +42°C° 0 mm 6 m/s 749 mm Hg 8%

Domani, 25 Giugno, Venerdi

Tempo Temperatura Precipitazioni Vento Pressione Umidità
00:00 +41°C° 0 mm 6 m/s 749 mm Hg 9%
01:00 +40°C° 0 mm 6 m/s 749 mm Hg 10%
02:00 +39°C° 0 mm 6 m/s 749 mm Hg 11%
03:00 +39°C° 0 mm 6 m/s 749 mm Hg 12%
04:00 +37°C° 0 mm 5 m/s 749 mm Hg 12%
05:00 +37°C° 0 mm 5 m/s 749 mm Hg 13%
06:00 +37°C° 0 mm 4 m/s 749 mm Hg 14%
07:00 +40°C° 0 mm 4 m/s 750 mm Hg 12%
08:00 +42°C° 0 mm 4 m/s 750 mm Hg 11%
09:00 +45°C° 0 mm 4 m/s 750 mm Hg 9%
10:00 +48°C° 0 mm 4 m/s 750 mm Hg 8%
11:00 +49°C° 0 mm 4 m/s 749 mm Hg 7%
12:00 +51°C° 0 mm 3 m/s 749 mm Hg 5%
13:00 +52°C° 0 mm 3 m/s 748 mm Hg 5%
14:00 +53°C° 0 mm 3 m/s 748 mm Hg 4%
15:00 +53°C° 0 mm 3 m/s 747 mm Hg 3%
16:00 +53°C° 0 mm 4 m/s 747 mm Hg 4%
17:00 +52°C° 0 mm 4 m/s 747 mm Hg 4%
18:00 +52°C° 0 mm 4 m/s 747 mm Hg 4%
19:00 +50°C° 0 mm 5 m/s 747 mm Hg 5%
20:00 +48°C° 0 mm 5 m/s 747 mm Hg 5%
21:00 +46°C° 0 mm 6 m/s 748 mm Hg 6%
22:00 +45°C° 0 mm 6 m/s 748 mm Hg 7%
23:00 +44°C° 0 mm 6 m/s 748 mm Hg 7%

Dopodomani, 26 Giugno, Sabato

Tempo Temperatura Precipitazioni Vento Pressione Umidità
00:00 +42°C° 0 mm 5 m/s 748 mm Hg 8%
01:00 +41°C° 0 mm 4 m/s 748 mm Hg 9%
02:00 +40°C° 0 mm 4 m/s 748 mm Hg 9%
03:00 +38°C° 0 mm 3 m/s 748 mm Hg 10%
04:00 +38°C° 0 mm 3 m/s 748 mm Hg 10%
05:00 +38°C° 0 mm 2 m/s 748 mm Hg 11%
06:00 +38°C° 0 mm 2 m/s 749 mm Hg 11%
07:00 +41°C° 0 mm 2 m/s 749 mm Hg 9%
08:00 +43°C° 0 mm 2 m/s 749 mm Hg 8%
09:00 +46°C° 0 mm 2 m/s 749 mm Hg 7%
10:00 +48°C° 0 mm 3 m/s 749 mm Hg 6%
11:00 +50°C° 0 mm 3 m/s 748 mm Hg 5%
12:00 +52°C° 0 mm 4 m/s 748 mm Hg 4%
13:00 +53°C° 0 mm 3 m/s 747 mm Hg 4%
14:00 +53°C° 0 mm 3 m/s 747 mm Hg 4%
15:00 +54°C° 0 mm 3 m/s 746 mm Hg 3%
16:00 +53°C° 0 mm 4 m/s 746 mm Hg 4%
17:00 +52°C° 0 mm 4 m/s 746 mm Hg 5%
18:00 +51°C° 0 mm 4 m/s 746 mm Hg 5%
19:00 +49°C° 0 mm 4 m/s 746 mm Hg 7%
20:00 +47°C° 0 mm 4 m/s 747 mm Hg 8%
21:00 +44°C° 0 mm 4 m/s 747 mm Hg 9%
22:00 +44°C° 0 mm 3 m/s 747 mm Hg 9%
23:00 +43°C° 0 mm 3 m/s 747 mm Hg 10%

27 Giugno, Domenica

Tempo Temperatura Precipitazioni Vento Pressione Umidità
00:00 +42°C° 0 mm 3 m/s 747 mm Hg 10%
01:00 +39°C° 0 mm 3 m/s 747 mm Hg 20%
02:00 +38°C° 0 mm 3 m/s 748 mm Hg 29%
03:00 +36°C° 0 mm 3 m/s 748 mm Hg 39%
04:00 +36°C° 0 mm 2 m/s 748 mm Hg 37%
05:00 +37°C° 0 mm 2 m/s 749 mm Hg 35%
06:00 +37°C° 0 mm 2 m/s 749 mm Hg 34%
07:00 +40°C° 0 mm 2 m/s 749 mm Hg 27%
08:00 +43°C° 0 mm 2 m/s 750 mm Hg 20%
09:00 +47°C° 0 mm 2 m/s 750 mm Hg 13%
10:00 +48°C° 0 mm 2 m/s 750 mm Hg 11%
11:00 +50°C° 0 mm 2 m/s 749 mm Hg 9%
12:00 +52°C° 0 mm 2 m/s 749 mm Hg 7%
13:00 +52°C° 0 mm 2 m/s 749 mm Hg 6%
14:00 +53°C° 0 mm 3 m/s 748 mm Hg 6%
15:00 +55°C° 0 mm 4 m/s 748 mm Hg 6%
16:00 +52°C° 0 mm 4 m/s 748 mm Hg 8%
17:00 +50°C° 0 mm 4 m/s 748 mm Hg 11%
18:00 +49°C° 0 mm 5 m/s 748 mm Hg 13%
19:00 +47°C° 0 mm 4 m/s 749 mm Hg 16%
20:00 +44°C° 0 mm 4 m/s 749 mm Hg 19%
21:00 +42°C° 0 mm 4 m/s 749 mm Hg 21%
22:00 +41°C° 0 mm 4 m/s 749 mm Hg 26%
23:00 +40°C° 0 mm 4 m/s 749 mm Hg 30%

28 Giugno, Lunedi

Tempo Temperatura Precipitazioni Vento Pressione Umidità
00:00 +38°C° 0 mm 4 m/s 749 mm Hg 35%
01:00 +37°C° 0 mm 4 m/s 749 mm Hg 41%
02:00 +36°C° 0 mm 3 m/s 749 mm Hg 47%
03:00 +35°C° 0 mm 3 m/s 750 mm Hg 53%
04:00 +35°C° 0 mm 3 m/s 750 mm Hg 50%
05:00 +35°C° 0 mm 3 m/s 750 mm Hg 48%
06:00 +36°C° 0 mm 3 m/s 750 mm Hg 46%
07:00 +39°C° 0 mm 2 m/s 750 mm Hg 36%
08:00 +41°C° 0 mm 1 m/s 751 mm Hg 26%
09:00 +41°C° 0 mm 0 m/s 751 mm Hg 16%
10:00 +46°C° 0 mm 1 m/s 750 mm Hg 13%
11:00 +48°C° 0 mm 1 m/s 750 mm Hg 10%
12:00 +52°C° 0 mm 2 m/s 750 mm Hg 7%
13:00 +52°C° 0 mm 2 m/s 749 mm Hg 7%
14:00 +52°C° 0 mm 2 m/s 749 mm Hg 7%
15:00 +53°C° 0 mm 2 m/s 748 mm Hg 7%
16:00 +52°C° 0 mm 3 m/s 748 mm Hg 10%
17:00 +50°C° 0 mm 4 m/s 748 mm Hg 14%
18:00 +48°C° 0 mm 5 m/s 748 mm Hg 18%
19:00 +45°C° 0 mm 5 m/s 749 mm Hg 24%
20:00 +42°C° 0 mm 5 m/s 749 mm Hg 30%
21:00 +40°C° 0 mm 5 m/s 749 mm Hg 36%
22:00 +39°C° 0 mm 5 m/s 749 mm Hg 40%
23:00 +37°C° 0 mm 4 m/s 749 mm Hg 44%

29 Giugno, Martedi

Tempo Temperatura Precipitazioni Vento Pressione Umidità
00:00 +36°C° 0 mm 4 m/s 749 mm Hg 48%
01:00 +35°C° 0 mm 4 m/s 749 mm Hg 50%
02:00 +35°C° 0 mm 3 m/s 749 mm Hg 52%
03:00 +34°C° 0 mm 3 m/s 749 mm Hg 55%
04:00 +35°C° 0 mm 2 m/s 750 mm Hg 50%
05:00 +36°C° 0 mm 2 m/s 750 mm Hg 46%
06:00 +36°C° 0 mm 2 m/s 750 mm Hg 42%
07:00 +39°C° 0 mm 2 m/s 750 mm Hg 33%
08:00 +42°C° 0 mm 2 m/s 751 mm Hg 24%
09:00 +44°C° 0 mm 1 m/s 751 mm Hg 15%
10:00 +47°C° 0 mm 2 m/s 750 mm Hg 12%
11:00 +49°C° 0 mm 2 m/s 750 mm Hg 10%
12:00 +51°C° 0 mm 2 m/s 750 mm Hg 7%
13:00 +52°C° 0 mm 3 m/s 749 mm Hg 8%
14:00 +53°C° 0 mm 3 m/s 749 mm Hg 8%
15:00 +53°C° 0 mm 4 m/s 748 mm Hg 9%
16:00 +51°C° 0 mm 4 m/s 748 mm Hg 11%
17:00 +50°C° 0 mm 4 m/s 748 mm Hg 13%
18:00 +48°C° 0 mm 4 m/s 748 mm Hg 15%
19:00 +45°C° 0 mm 4 m/s 748 mm Hg 19%
20:00 +43°C° 0 mm 4 m/s 749 mm Hg 22%
21:00 +41°C° 0 mm 4 m/s 749 mm Hg 26%
22:00 +40°C° 0 mm 3 m/s 749 mm Hg 25%
23:00 +40°C° 0 mm 3 m/s 749 mm Hg 24%
Mostrare altro

Abbiamo bisogno del tuo consenso

Meteoprog e i nostri fornitori di servizi possono memorizzare e accedere a dati personali come cookie, identificatori di dispositivi o altre tecnologie simili sul tuo dispositivo e possono elaborare tali dati per personalizzare i contenuti e gli annunci, nonché fornire funzionalità dei social media e analizzarne il traffico.

  • Archiviare e/o accedere alle informazioni sul tuo dispositivo

    Cookie, identificatori di dispositivi o altre informazioni possono essere memorizzati o resi accessibili sul tuo dispositivo per le finalità sopra indicate.

  • Annunci e contenuti personalizzati, misurazione di annunci e contenuti, approfondimenti sul pubblico e sviluppo di prodotti

    Gli annunci e i contenuti possono essere personalizzati in base a un profilo. È possibile aggiungere più dati per personalizzare meglio annunci e contenuti. È possibile misurare il rendimento degli annunci e dei contenuti. È possibile ricavare informazioni sul pubblico che ha visto gli annunci e i contenuti. Tali dati possono essere utilizzati per sviluppare o migliorare l'esperienza, i sistemi e il software dell'utente.

Cliccando su “Accetto”, acconsenti all'uso di cookie, identificatori di dispositivo, web beacon o altre tecnologie simili. Puoi modificare le impostazioni nel browser del tuo dispositivo.

Per determinati scopi, è possibile fare affidamento su interessi legali, piuttosto che sul consenso. Puoi approfondire questo argomento consultando la nostra Informativa sulla privacy e sui cookie.